Location: São Paulo
(23.5507°S, 46.6334°W)
Time: 17:15:36
(UTC-03:00)

Tiros 1 - Pass Details

Date: 11 February 2026
Orbit: 618 x 649 km, 48.4° (Epoch: 8 March)

Event Time Altitude Azimuth Distance (km) Brightness Sun altitude
Rises 23:17:37 0° 262° (W) 2,950 - -49.7°
Reaches altitude 10° 23:21:50 10° 226° (SW) 2,054 - -50.0°
Maximum altitude 23:23:09 11° 210° (SSW) 1,991 - -50.2°
Drops below altitude 10° 23:24:28 10° 194° (SSW) 2,061 - -50.3°
Sets 23:28:44 0° 158° (SSE) 2,981 - -50.6°
